TimeCST,TemperatureF,Dew PointF,Humidity,Sea Level PressureIn,VisibilityMPH,Wind Direction,Wind SpeedMPH,Gust SpeedMPH,PrecipitationIn,Events,Conditions,WindDirDegrees,DateUTC
12:53 AM,26.1,21.9,84,30.02,10.0,North,11.5,-,N/A,,Clear,10,2012-12-23 06:53:00
1:53 AM,24.1,21.0,88,30.01,10.0,North,9.2,-,N/A,,Clear,10,2012-12-23 07:53:00
2:53 AM,21.0,19.0,92,30.03,9.0,North,9.2,-,N/A,,Clear,350,2012-12-23 08:53:00
3:53 AM,19.9,17.1,89,30.02,7.0,North,9.2,-,N/A,,Clear,360,2012-12-23 09:53:00
4:53 AM,18.0,15.1,88,30.03,6.0,North,8.1,-,N/A,,Clear,360,2012-12-23 10:53:00
5:53 AM,17.1,15.1,92,30.02,6.0,North,6.9,-,N/A,,Clear,360,2012-12-23 11:53:00
6:53 AM,16.0,12.9,88,30.04,7.0,North,8.1,-,N/A,,Clear,360,2012-12-23 12:53:00
7:53 AM,15.1,12.0,88,30.04,6.0,NNE,8.1,-,N/A,,Clear,30,2012-12-23 13:53:00
8:53 AM,16.0,12.9,88,30.06,6.0,NNE,6.9,-,N/A,,Clear,20,2012-12-23 14:53:00
9:22 AM,17.6,12.2,79,29.98,6.0,NNE,6.9,-,N/A,,Partly Cloudy,20,2012-12-23 15:22:00
9:53 AM,17.1,12.9,84,30.05,5.0,NNE,6.9,-,N/A,,Partly Cloudy,30,2012-12-23 15:53:00
10:53 AM,19.9,17.1,89,30.08,5.0,NW,8.1,-,N/A,,Scattered Clouds,310,2012-12-23 16:53:00
11:53 AM,21.9,17.1,82,30.04,6.0,NW,6.9,-,N/A,,Haze,310,2012-12-23 17:53:00
12:53 PM,26.1,19.0,75,30.01,8.0,NW,9.2,-,N/A,,Clear,310,2012-12-23 18:53:00
1:53 PM,27.0,19.0,72,29.99,8.0,NNW,10.4,-,N/A,,Clear,330,2012-12-23 19:53:00
2:53 PM,27.0,18.0,69,29.98,9.0,NNW,8.1,-,N/A,,Clear,330,2012-12-23 20:53:00
3:53 PM,26.1,19.0,75,29.99,9.0,NNW,10.4,-,N/A,,Clear,330,2012-12-23 21:53:00
4:53 PM,26.1,18.0,71,30.02,9.0,NW,11.5,-,N/A,,Clear,320,2012-12-23 22:53:00
5:53 PM,26.1,19.0,75,30.01,9.0,WNW,4.6,-,N/A,,Clear,300,2012-12-23 23:53:00
6:53 PM,24.1,19.0,81,30.02,9.0,Calm,Calm,-,N/A,,Clear,0,2012-12-24 00:53:00
7:53 PM,24.1,18.0,77,30.02,9.0,Calm,Calm,-,N/A,,Clear,0,2012-12-24 01:53:00
8:53 PM,21.0,17.1,85,30.07,8.0,North,6.9,-,N/A,,Clear,360,2012-12-24 02:53:00
9:53 PM,19.0,15.1,85,30.08,8.0,North,8.1,-,N/A,,Clear,360,2012-12-24 03:53:00
10:53 PM,19.0,15.1,85,30.08,7.0,North,11.5,-,N/A,,Clear,350,2012-12-24 04:53:00
11:53 PM,19.0,15.1,85,30.10,8.0,North,11.5,-,N/A,,Clear,350,2012-12-24 05:53:00